| time (UTC) | temp F | wind direction | speed knots | gust knots | rain 1hr in | rain 24hr in | rain mn in | humidity % | barometer mb |
| 20260505065515 | 42 | 360 | 0.0 | 0.0 | 0.00 | 0.01 | 0.00 | 93 | 1007.4 |
| 20260505065015 | 42 | 360 | 0.0 | 0.0 | 0.00 | 0.01 | 0.00 | 93 | 1007.3 |
| 20260505064506 | 42 | 360 | 0.0 | 0.0 | 0.00 | 0.01 | 0.00 | 93 | 1007.3 |
| 20260505064104 | 42 | 360 | 0.0 | 0.0 | 0.00 | 0.01 | 0.00 | 93 | 1007.4 |
| 20260505063645 | 42 | 360 | 0.0 | 0.0 | 0.00 | 0.01 | 0.00 | 93 | 1007.6 |
| 20260505063046 | 42 | 360 | 0.0 | 0.0 | 0.00 | 0.01 | 0.00 | 93 | 1007.6 |
| 20260505062531 | 42 | 360 | 0.0 | 0.0 | 0.00 | 0.01 | 0.00 | 93 | 1007.6 |
| 20260505062030 | 42 | 360 | 0.0 | 0.0 | 0.00 | 0.01 | 0.00 | 93 | 1007.4 |
| 20260505061524 | 42 | 360 | 0.0 | 0.0 | 0.00 | 0.01 | 0.00 | 92 | 1007.4 |
| 20260505061017 | 42 | 360 | 0.0 | 0.0 | 0.00 | 0.01 | 0.00 | 92 | 1007.3 |
| 20260505060509 | 41 | 360 | 0.0 | 0.0 | 0.00 | 0.01 | 0.00 | 92 | 1007.4 |
| 20260505060004 | 41 | 360 | 0.0 | 0.0 | 0.00 | 0.01 | 0.01 | 92 | 1007.3 |
| 20260505055559 | 41 | 360 | 0.0 | 0.0 | 0.00 | 0.01 | 0.01 | 92 | 1007.5 |
| 20260505055054 | 42 | 360 | 0.0 | 0.0 | 0.00 | 0.01 | 0.01 | 91 | 1007.5 |
| 20260505054615 | 42 | 360 | 0.0 | 0.0 | 0.00 | 0.01 | 0.01 | 92 | 1007.8 |
| 20260505054045 | 42 | 360 | 0.0 | 0.0 | 0.00 | 0.01 | 0.01 | 92 | 1008.3 |
| 20260505053538 | 42 | 360 | 0.0 | 0.0 | 0.00 | 0.01 | 0.01 | 92 | 1007.9 |
| 20260505053018 | 41 | 360 | 0.0 | 0.0 | 0.00 | 0.01 | 0.01 | 92 | 1007.6 |
| 20260505052514 | 42 | 360 | 0.0 | 0.0 | 0.00 | 0.01 | 0.01 | 91 | 1007.7 |
| 20260505052009 | 42 | 360 | 0.0 | 0.0 | 0.00 | 0.01 | 0.01 | 91 | 1007.9 |
| 20260505051504 | 42 | 360 | 0.0 | 0.0 | 0.00 | 0.01 | 0.01 | 91 | 1007.8 |
| 20260505051059 | 42 | 360 | 0.0 | 0.0 | 0.00 | 0.01 | 0.01 | 91 | 1007.7 |
| 20260505050600 | 42 | 360 | 0.0 | 0.0 | 0.00 | 0.01 | 0.01 | 91 | 1007.8 |
| 20260505041505 | 43 | 360 | 0.0 | 0.0 | 0.00 | 0.01 | 0.01 | 89 | 1008.3 |
| 20260505041057 | 43 | 360 | 0.0 | 0.0 | 0.00 | 0.01 | 0.01 | 89 | 1008.2 |
| 20260505040552 | 43 | 360 | 0.0 | 0.0 | 0.00 | 0.01 | 0.01 | 88 | 1008.1 |
| 20260505040047 | 43 | 360 | 0.0 | 0.0 | 0.00 | 0.01 | 0.01 | 88 | 1008.2 |
| 20260505035541 | 43 | 360 | 0.0 | 0.0 | 0.00 | 0.01 | 0.01 | 88 | 1007.9 |
| 20260505035040 | 43 | 360 | 0.0 | 0.0 | 0.00 | 0.01 | 0.01 | 89 | 1007.7 |
| 20260505034535 | 43 | 360 | 0.0 | 0.0 | 0.00 | 0.01 | 0.01 | 89 | 1007.6 |
| 20260505034011 | 43 | 360 | 0.0 | 0.0 | 0.01 | 0.01 | 0.01 | 88 | 1007.7 |
| 20260505033506 | 43 | 360 | 0.0 | 0.0 | 0.01 | 0.01 | 0.01 | 88 | 1007.6 |
| 20260505033002 | 43 | 360 | 0.0 | 0.0 | 0.01 | 0.01 | 0.01 | 89 | 1007.4 |
| 20260505032551 | 43 | 360 | 0.0 | 0.0 | 0.01 | 0.01 | 0.01 | 88 | 1007.4 |
| 20260505032047 | 43 | 360 | 0.0 | 0.0 | 0.01 | 0.01 | 0.01 | 87 | 1007.4 |
| 20260505031542 | 44 | 360 | 0.0 | 0.0 | 0.01 | 0.01 | 0.01 | 85 | 1007.3 |
| 20260505031034 | 44 | 360 | 0.0 | 0.0 | 0.01 | 0.01 | 0.01 | 86 | 1007.0 |
| 20260505030528 | 44 | 360 | 0.0 | 0.0 | 0.01 | 0.01 | 0.01 | 87 | 1006.8 |
| 20260505030023 | 44 | 360 | 0.0 | 0.0 | 0.01 | 0.01 | 0.01 | 85 | 1006.8 |
| 20260505025516 | 45 | 360 | 0.0 | 0.0 | 0.01 | 0.01 | 0.01 | 82 | 1006.9 |
| 20260505025010 | 45 | 360 | 0.0 | 0.0 | 0.01 | 0.01 | 0.01 | 81 | 1006.9 |
| 20260505024505 | 46 | 360 | 0.0 | 0.0 | 0.01 | 0.01 | 0.01 | 78 | 1006.8 |
| 20260505024059 | 46 | 360 | 0.0 | 0.0 | 0.00 | 0.00 | 0.00 | 76 | 1006.9 |
| 20260505023553 | 46 | 360 | 0.0 | 0.0 | 0.00 | 0.00 | 0.00 | 75 | 1006.8 |
| 20260505023048 | 46 | 360 | 0.0 | 0.0 | 0.00 | 0.00 | 0.00 | 73 | 1006.8 |
| 20260505022543 | 46 | 360 | 0.0 | 0.0 | 0.00 | 0.00 | 0.00 | 73 | 1006.7 |
| 20260505022038 | 46 | 360 | 0.0 | 0.0 | 0.00 | 0.00 | 0.00 | 72 | 1006.4 |
| 20260505021535 | 46 | 360 | 0.0 | 0.0 | 0.00 | 0.00 | 0.00 | 72 | 1006.3 |
| 20260505021027 | 46 | 360 | 0.0 | 0.0 | 0.00 | 0.00 | 0.00 | 72 | 1006.4 |
| 20260505020522 | 46 | 360 | 0.0 | 0.0 | 0.00 | 0.00 | 0.00 | 72 | 1006.4 |
| 20260505020009 | 46 | 360 | 0.0 | 0.0 | 0.00 | 0.00 | 0.00 | 72 | 1006.3 |
| 20260505015503 | 46 | 360 | 0.0 | 0.0 | 0.00 | 0.00 | 0.00 | 72 | 1006.3 |
| 20260505015059 | 46 | 360 | 0.0 | 0.0 | 0.00 | 0.00 | 0.00 | 71 | 1006.3 |
| 20260505014554 | 46 | 360 | 0.0 | 0.0 | 0.00 | 0.00 | 0.00 | 71 | 1006.2 |
| 20260505014048 | 46 | 360 | 0.0 | 0.0 | 0.00 | 0.00 | 0.00 | 70 | 1006.1 |
| 20260505013547 | 47 | 360 | 0.0 | 0.0 | 0.00 | 0.00 | 0.00 | 70 | 1006.1 |
| 20260505013040 | 47 | 360 | 0.0 | 0.0 | 0.00 | 0.00 | 0.00 | 70 | 1006.0 |
| 20260505012534 | 47 | 360 | 0.0 | 0.0 | 0.00 | 0.00 | 0.00 | 70 | 1005.9 |
| 20260505012028 | 48 | 360 | 0.0 | 0.0 | 0.00 | 0.00 | 0.00 | 70 | 1006.2 |
| 20260505011522 | 48 | 360 | 0.0 | 3.5 | 0.00 | 0.00 | 0.00 | 70 | 1006.3 |
| 20260505011018 | 48 | 360 | 0.0 | 3.5 | 0.00 | 0.00 | 0.00 | 68 | 1006.1 |
| 20260505010513 | 48 | 360 | 0.0 | 0.0 | 0.00 | 0.00 | 0.00 | 69 | 1006.0 |
| 20260505010014 | 49 | 360 | 0.0 | 1.7 | 0.00 | 0.00 | 0.00 | 68 | 1005.8 |
| 20260505005503 | 49 | 360 | 0.0 | 1.7 | 0.00 | 0.00 | 0.00 | 70 | 1005.7 |
| 20260505005100 | 49 | 360 | 0.0 | 0.0 | 0.00 | 0.00 | 0.00 | 68 | 1005.9 |
| 20260505004554 | 49 | 360 | 0.0 | 0.0 | 0.00 | 0.00 | 0.00 | 71 | 1005.7 |
| 20260505004047 | 49 | 360 | 0.0 | 0.0 | 0.00 | 0.00 | 0.00 | 69 | 1005.8 |
| 20260505003542 | 50 | 360 | 0.0 | 0.0 | 0.00 | 0.00 | 0.00 | 67 | 1005.9 |
| 20260505003046 | 50 | 360 | 0.0 | 0.0 | 0.00 | 0.00 | 0.00 | 63 | 1005.9 |
| 20260505002534 | 51 | 360 | 0.0 | 2.6 | 0.00 | 0.00 | 0.00 | 60 | 1006.0 |
| 20260505002025 | 52 | 360 | 0.0 | 3.5 | 0.00 | 0.00 | 0.00 | 58 | 1006.0 |
| 20260505001520 | 52 | 360 | 1.7 | 3.5 | 0.00 | 0.00 | 0.00 | 55 | 1006.1 |
| 20260505001101 | 53 | 360 | 0.0 | 0.0 | 0.00 | 0.00 | 0.00 | 54 | 1005.8 |
| 20260505000555 | 53 | 360 | 0.0 | 0.0 | 0.00 | 0.00 | 0.00 | 53 | 1005.8 |
| 20260505000059 | 53 | 360 | 0.0 | 2.6 | 0.00 | 0.00 | 0.00 | 55 | 1005.6 |
| 20260504235550 | 53 | 360 | 0.0 | 7.0 | 0.00 | 0.00 | 0.00 | 53 | 1005.5 |
| 20260504235042 | 53 | 360 | 2.6 | 7.0 | 0.00 | 0.00 | 0.00 | 50 | 1005.4 |
| 20260504234536 | 53 | 360 | 0.0 | 0.0 | 0.00 | 0.00 | 0.00 | 52 | 1005.2 |
| 20260504234031 | 53 | 360 | 0.0 | 4.3 | 0.00 | 0.00 | 0.00 | 52 | 1005.1 |
| 20260504233529 | 53 | 360 | 0.9 | 4.3 | 0.00 | 0.00 | 0.00 | 50 | 1004.8 |
| 20260504233022 | 53 | 360 | 0.0 | 0.9 | 0.00 | 0.00 | 0.00 | 53 | 1004.7 |
| 20260504232556 | 53 | 360 | 0.0 | 2.6 | 0.00 | 0.00 | 0.00 | 52 | 1004.8 |
| 20260504232050 | 54 | 360 | 0.0 | 4.3 | 0.00 | 0.00 | 0.00 | 47 | 1004.5 |
| 20260504231544 | 54 | 360 | 0.0 | 7.8 | 0.00 | 0.00 | 0.00 | 46 | 1004.0 |
| 20260504231039 | 55 | 360 | 1.7 | 13.0 | 0.00 | 0.00 | 0.00 | 44 | 1003.7 |
| 20260504230535 | 56 | 360 | 4.3 | 13.0 | 0.00 | 0.00 | 0.00 | 41 | 1003.5 |
| 20260504230029 | 57 | 360 | 3.5 | 7.8 | 0.00 | 0.00 | 0.00 | 39 | 1003.4 |
| 20260504225524 | 59 | 360 | 0.9 | 10.4 | 0.00 | 0.00 | 0.00 | 36 | 1003.3 |
| 20260504225017 | 60 | 360 | 1.7 | 8.7 | 0.00 | 0.00 | 0.00 | 33 | 1003.2 |
| 20260504224522 | 60 | 360 | 1.7 | 4.3 | 0.00 | 0.00 | 0.00 | 32 | 1002.9 |
| 20260504224009 | 60 | 360 | 1.7 | 5.2 | 0.00 | 0.00 | 0.00 | 32 | 1002.7 |
| 20260504223503 | 61 | 360 | 0.0 | 6.1 | 0.00 | 0.00 | 0.00 | 32 | 1002.7 |
| 20260504223108 | 61 | 152 | 1.7 | 6.1 | 0.00 | 0.00 | 0.00 | 33 | 1002.8 |
| 20260504222554 | 61 | 143 | 1.7 | 6.1 | 0.00 | 0.00 | 0.00 | 33 | 1002.8 |
| 20260504222048 | 61 | 163 | 2.6 | 6.1 | 0.00 | 0.00 | 0.00 | 33 | 1002.7 |
| 20260504221545 | 61 | 154 | 0.9 | 4.3 | 0.00 | 0.00 | 0.00 | 33 | 1002.9 |
| 20260504221038 | 61 | 83 | 0.0 | 0.0 | 0.00 | 0.00 | 0.00 | 33 | 1002.9 |
| 20260504220534 | 61 | 225 | 0.0 | 3.5 | 0.00 | 0.00 | 0.00 | 34 | 1002.6 |
| 20260504220029 | 61 | 238 | 0.0 | 7.0 | 0.00 | 0.00 | 0.00 | 34 | 1002.8 |
| 20260504215527 | 62 | 187 | 2.6 | 7.0 | 0.00 | 0.00 | 0.00 | 34 | 1002.8 |
| 20260504215017 | 62 | 161 | 1.7 | 6.1 | 0.00 | 0.00 | 0.00 | 34 | 1002.7 |
| 20260504214510 | 62 | 261 | 0.0 | 6.1 | 0.00 | 0.00 | 0.00 | 33 | 1002.9 |
| 20260504214004 | 62 | 159 | 2.6 | 6.1 | 0.00 | 0.00 | 0.00 | 33 | 1002.8 |
| 20260504213600 | 62 | 172 | 2.6 | 6.1 | 0.00 | 0.00 | 0.00 | 33 | 1002.9 |
| 20260504213101 | 62 | 233 | 1.7 | 4.3 | 0.00 | 0.00 | 0.00 | 34 | 1002.9 |
| 20260504212548 | 62 | 253 | 0.0 | 3.5 | 0.00 | 0.00 | 0.00 | 34 | 1002.9 |
| 20260504212040 | 62 | 168 | 1.7 | 6.1 | 0.00 | 0.00 | 0.00 | 34 | 1003.0 |
| 20260504211536 | 61 | 49 | 0.0 | 6.1 | 0.00 | 0.00 | 0.00 | 35 | 1003.1 |
| 20260504211029 | 61 | 114 | 0.0 | 0.0 | 0.00 | 0.00 | 0.00 | 36 | 1003.3 |
| 20260504210525 | 61 | 164 | 0.0 | 0.0 | 0.00 | 0.00 | 0.00 | 36 | 1003.4 |
| 20260504210021 | 61 | 360 | 0.0 | 0.0 | 0.00 | 0.00 | 0.00 | 36 | 1003.3 |
| 20260504205514 | 61 | 360 | 0.0 | 0.0 | 0.00 | 0.00 | 0.00 | 37 | 1003.5 |
| 20260504205009 | 61 | 11 | 0.0 | 0.0 | 0.00 | 0.00 | 0.00 | 36 | 1003.5 |
| 20260504204504 | 61 | 360 | 0.0 | 0.0 | 0.00 | 0.00 | 0.00 | 36 | 1003.3 |
| 20260504204102 | 61 | 198 | 0.0 | 0.0 | 0.00 | 0.00 | 0.00 | 36 | 1003.2 |
| 20260504203555 | 62 | 67 | 0.0 | 0.0 | 0.00 | 0.00 | 0.00 | 35 | 1003.3 |
| 20260504203050 | 62 | 146 | 0.0 | 0.0 | 0.00 | 0.00 | 0.00 | 35 | 1003.3 |
| 20260504202544 | 63 | 172 | 0.0 | 0.0 | 0.00 | 0.00 | 0.00 | 34 | 1003.2 |
| 20260504202039 | 62 | 87 | 0.0 | 0.0 | 0.00 | 0.00 | 0.00 | 35 | 1003.1 |
| 20260504201533 | 61 | 360 | 0.0 | 0.0 | 0.00 | 0.00 | 0.00 | 34 | 1003.2 |
| 20260504201030 | 62 | 102 | 0.0 | 0.0 | 0.00 | 0.00 | 0.00 | 34 | 1003.3 |
| 20260504200527 | 62 | 13 | 0.0 | 0.0 | 0.00 | 0.00 | 0.00 | 33 | 1003.2 |
| 20260504200020 | 63 | 141 | 0.0 | 2.6 | 0.00 | 0.00 | 0.00 | 32 | 1003.2 |
| 20260504195512 | 63 | 90 | 0.0 | 7.8 | 0.00 | 0.00 | 0.00 | 33 | 1003.2 |
| 20260504195007 | 64 | 36 | 0.0 | 8.7 | 0.00 | 0.00 | 0.00 | 31 | 1003.2 |
| 20260504194501 | 65 | 148 | 1.7 | 9.6 | 0.00 | 0.00 | 0.00 | 29 | 1003.0 |
| 20260504194057 | 66 | 259 | 1.7 | 9.6 | 0.00 | 0.00 | 0.00 | 29 | 1002.9 |
| 20260504193552 | 66 | 92 | 2.6 | 7.8 | 0.00 | 0.00 | 0.00 | 29 | 1002.9 |
| 20260504193049 | 67 | 132 | 0.9 | 6.1 | 0.00 | 0.00 | 0.00 | 23 | 1003.0 |
| 20260504192531 | 67 | 276 | 2.6 | 7.0 | 0.00 | 0.00 | 0.00 | 24 | 1003.0 |
| 20260504192030 | 68 | 128 | 2.6 | 7.0 | 0.00 | 0.00 | 0.00 | 23 | 1003.1 |
| 20260504191522 | 67 | 149 | 1.7 | 7.8 | 0.00 | 0.00 | 0.00 | 24 | 1003.1 |
| 20260504191018 | 67 | 157 | 1.7 | 6.1 | 0.00 | 0.00 | 0.00 | 25 | 1003.3 |
| 20260504190515 | 67 | 254 | 0.0 | 7.0 | 0.00 | 0.00 | 0.00 | 26 | 1003.3 |
| 20260504190004 | 67 | 223 | 3.5 | 7.0 | 0.00 | 0.00 | 0.00 | 26 | 1003.5 |
| 20260504185558 | 66 | 140 | 2.6 | 7.8 | 0.00 | 0.00 | 0.00 | 26 | 1003.4 |
| 20260504185052 | 65 | 244 | 1.7 | 8.7 | 0.00 | 0.00 | 0.00 | 28 | 1003.6 |
| 20260504184545 | 64 | 18 | 2.6 | 8.7 | 0.00 | 0.00 | 0.00 | 29 | 1003.5 |
| 20260504184040 | 62 | 171 | 0.0 | 5.2 | 0.00 | 0.00 | 0.00 | 27 | 1003.7 |
| 20260504183534 | 61 | 161 | 0.9 | 5.2 | 0.00 | 0.00 | 0.00 | 29 | 1003.7 |
| 20260504183034 | 62 | 88 | 0.9 | 7.0 | 0.00 | 0.00 | 0.00 | 28 | 1003.7 |
| 20260504182521 | 62 | 294 | 0.0 | 0.0 | 0.00 | 0.00 | 0.00 | 27 | 1003.8 |
| 20260504182021 | 62 | 307 | 0.0 | 1.7 | 0.00 | 0.00 | 0.00 | 28 | 1004.0 |
| 20260504181510 | 63 | 185 | 0.0 | 7.8 | 0.00 | 0.00 | 0.00 | 28 | 1004.0 |
| 20260504181004 | 63 | 130 | 0.0 | 7.8 | 0.00 | 0.00 | 0.00 | 27 | 1004.2 |
| 20260504180600 | 64 | 25 | 1.7 | 6.1 | 0.00 | 0.00 | 0.00 | 26 | 1004.3 |
| 20260504180054 | 64 | 196 | 0.9 | 8.7 | 0.00 | 0.00 | 0.00 | 25 | 1004.2 |
| 20260504175548 | 63 | 244 | 0.9 | 10.4 | 0.00 | 0.00 | 0.00 | 23 | 1004.3 |
| 20260504175046 | 64 | 167 | 2.6 | 11.3 | 0.00 | 0.00 | 0.00 | 23 | 1004.4 |
| 20260504174537 | 64 | 198 | 0.0 | 4.3 | 0.00 | 0.00 | 0.00 | 23 | 1004.5 |
| 20260504174031 | 64 | 236 | 0.0 | 7.8 | 0.00 | 0.00 | 0.00 | 22 | 1004.6 |
| 20260504173528 | 64 | 285 | 0.0 | 4.3 | 0.00 | 0.00 | 0.00 | 25 | 1004.9 |
| 20260504173018 | 64 | 234 | 0.0 | 4.3 | 0.00 | 0.00 | 0.00 | 27 | 1004.7 |
| 20260504172516 | 64 | 24 | 0.0 | 3.5 | 0.00 | 0.00 | 0.00 | 26 | 1004.9 |
| 20260504172006 | 64 | 35 | 0.0 | 0.0 | 0.00 | 0.00 | 0.00 | 26 | 1005.1 |
| 20260504171502 | 64 | 287 | 0.0 | 4.3 | 0.00 | 0.00 | 0.00 | 26 | 1005.2 |
| 20260504171059 | 64 | 115 | 0.0 | 4.3 | 0.00 | 0.00 | 0.00 | 26 | 1005.4 |
| 20260504170550 | 64 | 183 | 0.0 | 3.5 | 0.00 | 0.00 | 0.00 | 26 | 1005.4 |
| 20260504151037 | 46 | 360 | 0.0 | 0.0 | 0.00 | 0.00 | 0.00 | 51 | 1007.4 |
| 20260504150531 | 46 | 360 | 0.0 | 0.0 | 0.00 | 0.00 | 0.00 | 53 | 1007.6 |
| 20260504141013 | 39 | 360 | 0.0 | 0.0 | 0.00 | 0.00 | 0.00 | 59 | 1008.3 |
| 20260504140502 | 38 | 360 | 0.0 | 0.0 | 0.00 | 0.00 | 0.00 | 62 | 1008.2 |
| 20260504130553 | 35 | 360 | 0.0 | 0.0 | 0.00 | 0.00 | 0.00 | 69 | 1008.4 |
| 20260504110522 | 35 | 360 | 0.0 | 0.0 | 0.00 | 0.00 | 0.00 | 62 | 1008.4 |
| 20260504100515 | 36 | 360 | 0.0 | 0.0 | 0.00 | 0.00 | 0.00 | 60 | 1008.6 |
| 20260504081546 | 41 | 360 | 0.0 | 0.0 | 0.00 | 0.00 | 0.00 | 51 | 1009.1 |
| 20260504081038 | 41 | 360 | 0.0 | 0.0 | 0.00 | 0.00 | 0.00 | 51 | 1009.1 |
| 20260504080533 | 41 | 360 | 0.0 | 0.0 | 0.00 | 0.00 | 0.00 | 51 | 1009.2 |